When you browse on this site, cookies collect data to enhance your experience and personalize the content and advertising you see.
Visit our Privacy Policy to learn more. By continuing to use the site, you agree to this use of cookies and data.
  • In Romania
  • List of Countries
  • For 7 days
  • Water Temperature
  • Weather Map
  • Weather Widgets
  • user-avatar
    Login

    Hourly Weather Huancavelica

    Today, 28 May, Thursday

    Time Temperature Precipitation Wind Pressure Humidity
    00:00 +1°C° 0 mm 0 mps 461 mmHg 70%
    01:00 +1°C° 0 mm 0 mps 461 mmHg 69%
    02:00 0°C° 0 mm 0 mps 461 mmHg 68%
    03:00 0°C° 0 mm 0 mps 461 mmHg 67%
    04:00 0°C° 0 mm 0 mps 461 mmHg 66%
    05:00 +1°C° 0 mm 0 mps 462 mmHg 66%
    06:00 +3°C° 0 mm 0 mps 463 mmHg 65%
    07:00 +4°C° 0 mm 0 mps 464 mmHg 64%
    08:00 +7°C° 0 mm 1 mps 465 mmHg 55%
    09:00 +9°C° 0 mm 1 mps 467 mmHg 46%
    10:00 +10°C° 0 mm 2 mps 468 mmHg 37%
    11:00 +12°C° 0 mm 2 mps 468 mmHg 36%
    12:00 +12°C° 0 mm 3 mps 468 mmHg 36%
    13:00 +12°C° 0 mm 3 mps 469 mmHg 35%
    14:00 +12°C° 0 mm 3 mps 468 mmHg 39%
    15:00 +11°C° 0 mm 3 mps 468 mmHg 42%
    16:00 +11°C° 0 mm 3 mps 467 mmHg 46%
    17:00 +8°C° 0 mm 2 mps 466 mmHg 58%
    18:00 +6°C° 0 mm 1 mps 464 mmHg 71%
    19:00 +4°C° 0 mm 1 mps 462 mmHg 84%
    20:00 +3°C° 0 mm 1 mps 462 mmHg 85%
    21:00 +3°C° 0 mm 1 mps 462 mmHg 86%
    22:00 +3°C° 0 mm 1 mps 462 mmHg 87%
    23:00 +3°C° 0 mm 1 mps 462 mmHg 87%

    Tomorrow, 29 May, Friday

    Time Temperature Precipitation Wind Pressure Humidity
    00:00 +2°C° 0 mm 1 mps 462 mmHg 87%
    01:00 +2°C° 0 mm 1 mps 461 mmHg 87%
    02:00 +1°C° 0 mm 0 mps 461 mmHg 87%
    03:00 +1°C° 0 mm 0 mps 461 mmHg 87%
    04:00 +1°C° 0 mm 0 mps 461 mmHg 87%
    05:00 +2°C° 0 mm 0 mps 462 mmHg 85%
    06:00 +3°C° 0 mm 0 mps 463 mmHg 82%
    07:00 +4°C° 0 mm 0 mps 464 mmHg 80%
    08:00 +7°C° 0 mm 1 mps 465 mmHg 69%
    09:00 +9°C° 0 mm 1 mps 467 mmHg 58%
    10:00 +10°C° 0 mm 2 mps 468 mmHg 47%
    11:00 +10°C° 0 mm 3 mps 468 mmHg 44%
    12:00 +11°C° 0 mm 3 mps 468 mmHg 41%
    13:00 +12°C° 0 mm 4 mps 468 mmHg 38%
    14:00 +12°C° 0 mm 4 mps 468 mmHg 40%
    15:00 +11°C° 0 mm 4 mps 468 mmHg 42%
    16:00 +11°C° 0 mm 4 mps 467 mmHg 44%
    17:00 +8°C° 0 mm 3 mps 465 mmHg 59%
    18:00 +5°C° 0 mm 2 mps 464 mmHg 74%
    19:00 +4°C° 0 mm 1 mps 462 mmHg 89%
    20:00 +3°C° 0 mm 1 mps 462 mmHg 91%
    21:00 +2°C° 0 mm 0 mps 462 mmHg 93%
    22:00 +1°C° 0 mm 0 mps 462 mmHg 95%
    23:00 +1°C° 0 mm 0 mps 462 mmHg 95%

    Day after tomorrow, 30 May, Saturday

    Time Temperature Precipitation Wind Pressure Humidity
    00:00 +1°C° 0 mm 0 mps 462 mmHg 95%
    01:00 +1°C° 0 mm 0 mps 462 mmHg 95%
    02:00 +1°C° 0 mm 0 mps 462 mmHg 95%
    03:00 +1°C° 0 mm 0 mps 462 mmHg 96%
    04:00 +1°C° 0 mm 0 mps 462 mmHg 96%
    05:00 +2°C° 0 mm 0 mps 462 mmHg 93%
    06:00 +3°C° 0 mm 0 mps 463 mmHg 91%
    07:00 +3°C° 0 mm 0 mps 464 mmHg 88%
    08:00 +6°C° 0 mm 1 mps 465 mmHg 77%
    09:00 +7°C° 0 mm 2 mps 466 mmHg 66%
    10:00 +9°C° 0 mm 2 mps 467 mmHg 55%
    11:00 +10°C° 0 mm 3 mps 468 mmHg 50%
    12:00 +11°C° 0 mm 3 mps 468 mmHg 46%
    13:00 +12°C° 0 mm 4 mps 468 mmHg 41%
    14:00 +11°C° 0 mm 4 mps 468 mmHg 45%
    15:00 +10°C° 0 mm 3 mps 467 mmHg 48%
    16:00 +10°C° 0 mm 3 mps 466 mmHg 51%
    17:00 +8°C° 0 mm 2 mps 465 mmHg 64%
    18:00 +6°C° 0 mm 1 mps 464 mmHg 76%
    19:00 +4°C° 0 mm 1 mps 462 mmHg 88%
    20:00 +3°C° 0 mm 0 mps 462 mmHg 90%
    21:00 +2°C° 0 mm 0 mps 462 mmHg 92%
    22:00 +2°C° 0 mm 0 mps 462 mmHg 93%
    23:00 +2°C° 0 mm 0 mps 462 mmHg 94%

    31 May, Sunday

    Time Temperature Precipitation Wind Pressure Humidity
    00:00 +2°C° 0 mm 0 mps 462 mmHg 94%
    01:00 +2°C° 0 mm 0 mps 462 mmHg 94%
    02:00 +2°C° 0 mm 0 mps 463 mmHg 92%
    03:00 +3°C° 0 mm 1 mps 463 mmHg 91%
    04:00 +4°C° 0 mm 1 mps 463 mmHg 89%
    05:00 +4°C° 0 mm 1 mps 463 mmHg 87%
    06:00 +4°C° 0 mm 1 mps 464 mmHg 86%
    07:00 +4°C° 0 mm 1 mps 464 mmHg 85%
    08:00 +6°C° 0 mm 1 mps 465 mmHg 74%
    09:00 +7°C° 0 mm 2 mps 467 mmHg 63%
    10:00 +9°C° 0 mm 2 mps 468 mmHg 52%
    11:00 +10°C° 0 mm 3 mps 468 mmHg 49%
    12:00 +11°C° 0 mm 3 mps 469 mmHg 46%
    13:00 +12°C° 0 mm 4 mps 469 mmHg 43%
    14:00 +11°C° 0.1 mm 3 mps 468 mmHg 50%
    15:00 +10°C° 0.1 mm 2 mps 467 mmHg 57%
    16:00 +10°C° 0.1 mm 1 mps 466 mmHg 64%
    17:00 +9°C° 0.1 mm 1 mps 465 mmHg 71%
    18:00 +7°C° 0.1 mm 1 mps 464 mmHg 78%
    19:00 +6°C° 0.1 mm 1 mps 464 mmHg 85%
    20:00 +5°C° 0 mm 1 mps 463 mmHg 87%
    21:00 +4°C° 0 mm 1 mps 463 mmHg 88%
    22:00 +3°C° 0 mm 1 mps 462 mmHg 89%
    23:00 +2°C° 0 mm 0 mps 462 mmHg 88%

    1 June, Monday

    Time Temperature Precipitation Wind Pressure Humidity
    00:00 +2°C° 0 mm 0 mps 462 mmHg 86%
    01:00 +2°C° 0 mm 0 mps 462 mmHg 85%
    02:00 +2°C° 0 mm 0 mps 462 mmHg 86%
    03:00 +1°C° 0 mm 0 mps 462 mmHg 88%
    04:00 +1°C° 0 mm 0 mps 461 mmHg 89%
    05:00 +2°C° 0 mm 0 mps 462 mmHg 87%
    06:00 +3°C° 0 mm 0 mps 463 mmHg 86%
    07:00 +4°C° 0 mm 0 mps 464 mmHg 84%
    08:00 +7°C° 0 mm 1 mps 466 mmHg 72%
    09:00 +9°C° 0 mm 1 mps 467 mmHg 59%
    10:00 +9°C° 0 mm 2 mps 468 mmHg 47%
    11:00 +10°C° 0 mm 2 mps 468 mmHg 43%
    12:00 +12°C° 0 mm 2 mps 469 mmHg 39%
    13:00 +13°C° 0 mm 2 mps 469 mmHg 36%
    14:00 +13°C° 0 mm 2 mps 468 mmHg 38%
    15:00 +13°C° 0 mm 2 mps 468 mmHg 41%
    16:00 +12°C° 0 mm 2 mps 467 mmHg 44%
    17:00 +9°C° 0 mm 2 mps 466 mmHg 56%
    18:00 +7°C° 0 mm 2 mps 465 mmHg 68%
    19:00 +5°C° 0 mm 1 mps 463 mmHg 80%
    20:00 +5°C° 0 mm 1 mps 463 mmHg 81%
    21:00 +4°C° 0 mm 1 mps 463 mmHg 81%
    22:00 +3°C° 0 mm 2 mps 463 mmHg 82%
    23:00 +4°C° 0 mm 1 mps 463 mmHg 79%

    2 June, Tuesday

    Time Temperature Precipitation Wind Pressure Humidity
    00:00 +3°C° 0 mm 1 mps 463 mmHg 76%
    01:00 +3°C° 0 mm 1 mps 463 mmHg 73%
    02:00 +3°C° 0 mm 1 mps 462 mmHg 71%
    03:00 +3°C° 0 mm 1 mps 462 mmHg 69%
    04:00 +3°C° 0 mm 0 mps 462 mmHg 68%
    05:00 +3°C° 0 mm 0 mps 463 mmHg 68%
    06:00 +3°C° 0 mm 0 mps 463 mmHg 68%
    07:00 +4°C° 0 mm 0 mps 464 mmHg 68%
    08:00 +6°C° 0 mm 1 mps 465 mmHg 61%
    09:00 +8°C° 0 mm 1 mps 466 mmHg 55%
    10:00 +9°C° 0 mm 2 mps 467 mmHg 48%
    11:00 +10°C° 0 mm 2 mps 468 mmHg 45%
    12:00 +11°C° 0 mm 3 mps 468 mmHg 43%
    13:00 +12°C° 0 mm 3 mps 468 mmHg 40%
    14:00 +12°C° 0 mm 3 mps 468 mmHg 43%
    15:00 +11°C° 0 mm 3 mps 467 mmHg 45%
    16:00 +11°C° 0 mm 3 mps 467 mmHg 48%
    17:00 +9°C° 0.1 mm 3 mps 465 mmHg 60%
    18:00 +7°C° 0.1 mm 2 mps 464 mmHg 72%
    19:00 +5°C° 0.1 mm 1 mps 463 mmHg 85%
    20:00 +5°C° 0.1 mm 1 mps 463 mmHg 85%
    21:00 +5°C° 0.1 mm 1 mps 463 mmHg 86%
    22:00 +4°C° 0.1 mm 1 mps 463 mmHg 87%
    23:00 +4°C° 0.1 mm 1 mps 463 mmHg 85%
    Show more